Brooksville, FL

5:34 AM EDT on October 22, 2017 (GMT -0400)
Hernando County

Weather History for KBKV - February, 2013

Change the Weather History Date:

Wednesday, February 6, 2013

  Actual Average Record
Temperature  
Mean Temperature 64 °F -  
Max Temperature 75 °F 68 °F 82 °F (2004)
Min Temperature 53 °F 44 °F 19 °F (2009)
Degree Days  
Heating Degree Days 1    
Growing Degree Days 14 (Base 50)    
Moisture  
Dew Point 54 °F    
Average Humidity 67    
Maximum Humidity 89    
Minimum Humidity 46    
Precipitation  
Precipitation 0.00 in - - ()
Sea Level Pressure  
Sea Level Pressure 30.09 in    
Wind  
Wind Speed 2 mph (ENE)    
Max Wind Speed 7 mph    
Max Gust Speed -    
Visibility 10 miles    
Events      
Averages and records for this station are not official NWS values.
T = Trace of Precipitation, MM = Missing Value Source: NWS Daily Summary

Daily Weather History Graph

Daily Weather History Graph

Search for Another Location

Airport or City:

Trip Planner

Search our weather history database for the weather conditions in past years. The results will help you decide how hot, cold, wet, or windy it might be!

Date:

Astronomy

Feb. 06, 2013 Rise Set
Actual Time 7:14 AM EST 6:13 PM EST
Civil Twilight 6:50 AM EST 6:38 PM EST
Nautical Twilight 6:22 AM EST 7:06 PM EST
Astronomical Twilight 5:54 AM EST 7:33 PM EST
Moon 3:47 AM EST (2/6) 2:39 PM EST (2/6)
Length of Visible Light 11h 48m
Length of Day
10h 59m
Waning Crescent, 17% of the Moon is Illuminated
Feb 6
Waning Crescent
Feb 10
New
Feb 17
First Quarter
Feb 25
Full
Mar 4
Last Quarter

Hourly Weather History & Observations

Time (EST) Temp. Dew Point Humidity Pressure Visibility Wind Dir Wind Speed Gust Speed Precip Events Conditions
12:53 AM 54.0 °F 50.0 °F 86% 30.06 in 10.0 mi Calm Calm - N/A   Partly Cloudy
1:53 AM 53.1 °F 50.0 °F 89% 30.06 in 10.0 mi Calm Calm - N/A   Mostly Cloudy
2:53 AM 55.0 °F 50.0 °F 83% 30.06 in 10.0 mi Calm Calm - N/A   Overcast
3:53 AM 57.0 °F 51.1 °F 81% 30.06 in 10.0 mi Calm Calm - N/A   Overcast
4:53 AM 59.0 °F 53.1 °F 81% 30.06 in 10.0 mi Calm Calm - N/A   Overcast
5:53 AM 60.1 °F 51.1 °F 72% 30.06 in 10.0 mi ESE 4.6 mph - N/A   Scattered Clouds
6:53 AM 60.1 °F 51.1 °F 72% 30.08 in 10.0 mi East 3.5 mph - N/A   Partly Cloudy
7:53 AM 60.1 °F 51.1 °F 72% 30.10 in 10.0 mi East 3.5 mph - N/A   Mostly Cloudy
8:53 AM 64.9 °F 51.1 °F 61% 30.12 in 10.0 mi East 4.6 mph - N/A   Overcast
9:53 AM 68.0 °F 53.1 °F 59% 30.14 in 10.0 mi ENE 4.6 mph - N/A   Overcast
10:53 AM 72.0 °F 53.1 °F 51% 30.14 in 10.0 mi ENE 6.9 mph - N/A   Mostly Cloudy
11:53 AM 75.0 °F 53.1 °F 46% 30.12 in 10.0 mi NE 5.8 mph - N/A   Overcast
12:53 PM 75.0 °F 54.0 °F 48% 30.10 in 10.0 mi Calm Calm - N/A   Overcast
1:53 PM 75.9 °F 55.9 °F 50% 30.08 in 10.0 mi Variable 4.6 mph - N/A   Mostly Cloudy
2:53 PM 75.9 °F 55.0 °F 48% 30.07 in 10.0 mi SSE 4.6 mph - N/A   Overcast
3:53 PM 75.0 °F 55.0 °F 50% 30.07 in 10.0 mi South 3.5 mph - N/A   Overcast
4:53 PM 75.0 °F 55.9 °F 51% 30.06 in 10.0 mi Calm Calm - N/A   Overcast
5:53 PM 72.0 °F 57.9 °F 61% 30.06 in 10.0 mi NE 5.8 mph - N/A   Overcast
6:53 PM 71.1 °F 57.0 °F 61% 30.07 in 10.0 mi NE 6.9 mph - N/A   Overcast
7:53 PM 68.0 °F 57.0 °F 68% 30.08 in 10.0 mi ENE 3.5 mph - N/A   Mostly Cloudy
8:53 PM 64.9 °F 55.9 °F 73% 30.10 in 10.0 mi NNE 3.5 mph - N/A   Mostly Cloudy
9:53 PM 64.9 °F 57.9 °F 78% 30.10 in 10.0 mi Calm Calm - N/A   Overcast
10:53 PM 64.9 °F 60.1 °F 84% 30.10 in 10.0 mi East 6.9 mph - N/A   Scattered Clouds
11:53 PM 64.9 °F 61.0 °F 87% 30.09 in 10.0 mi ENE 5.8 mph - N/A   Mostly Cloudy